Theta_e
324 323 323 325 325 325 325 325 325 324 322 320 319 318 318 318 316 314 313 313 314 315 314 314 315 315 314 313 312 312 312 312 312 311 311 311 311 311 311 311 310 310 311 311 310 309 309 309 309 309 309 309
323 323 323 325 325 325 325 324 324 322 321 320 319 318 317 317 316 314 313 313 314 314 313 313 313 313 312 311 311 311 311 311 311 311 311 311 311 312 311 311 310 310 310 310 309 309 308 308 308 308 308 309
323 323 323 324 324 324 324 324 323 321 321 321 319 318 317 316 315 313 312 313 313 312 312 310 310 310 310 311 311 311 311 311 311 311 312 312 311 311 311 310 309 309 309 310 309 308 308 308 308 308 308 308
323 323 323 324 324 324 324 324 322 321 322 321 319 318 317 315 314 312 310 312 312 312 310 308 308 309 310 311 310 311 311 311 311 312 312 312 311 311 310 309 309 308 308 309 309 308 308 308 307 307 308 307
323 322 324 324 324 324 323 323 322 322 321 321 319 318 317 315 313 311 310 311 311 311 309 308 309 310 311 311 310 311 311 311 311 311 311 311 311 310 309 309 308 307 308 308 308 308 308 307 307 307 307 306
324 323 324 325 324 324 323 322 323 322 321 320 319 318 316 314 312 310 309 311 310 309 307 308 310 310 310 309 309 309 309 310 310 310 310 310 309 309 308 308 307 307 307 307 307 308 307 307 306 306 306 306
324 325 325 324 323 323 322 322 322 322 321 320 318 318 315 313 311 309 309 310 310 308 306 307 309 308 308 309 309 309 309 310 310 310 309 309 309 308 307 306 306 306 306 307 307 307 307 306 305 305 305 306
324 325 325 324 324 323 322 321 321 321 320 319 318 317 314 312 310 308 308 308 308 306 304 306 307 307 308 310 310 310 310 310 310 309 308 308 308 307 306 306 306 305 306 306 306 306 306 305 305 305 306 306
323 325 324 324 324 323 322 321 320 320 320 319 318 315 312 311 309 308 306 307 307 303 302 305 307 308 309 310 310 310 310 310 309 309 308 307 306 306 305 305 305 305 305 305 305 305 305 305 304 305 306 306
324 324 324 324 323 323 322 321 320 320 319 318 315 312 310 309 308 307 305 305 304 301 303 306 308 309 309 309 309 309 308 308 308 307 307 306 305 305 304 304 304 304 305 304 305 304 304 304 304 305 306 306
324 324 324 323 323 323 321 321 320 319 319 318 313 309 309 308 307 306 304 303 301 301 304 307 308 308 308 308 308 307 307 306 306 306 307 305 304 304 304 304 304 304 304 304 303 303 303 303 304 305 306 306
323 323 323 323 323 322 321 321 320 318 318 318 312 308 308 307 306 304 301 299 299 301 304 306 307 308 307 307 307 307 307 305 304 304 305 304 302 303 304 303 303 303 303 303 303 302 302 302 303 304 305 305
321 322 322 322 323 321 321 320 319 318 318 317 312 308 306 306 306 304 299 297 298 300 303 305 306 306 306 306 306 306 306 305 303 302 302 303 301 302 303 303 303 303 302 303 302 302 302 301 301 302 304 305
321 321 322 322 322 321 321 320 318 317 318 316 311 307 306 306 306 305 300 297 297 299 302 304 304 304 303 304 304 304 304 304 303 301 299 301 301 301 303 302 302 302 302 302 302 301 301 301 301 301 302 303
321 321 321 321 321 321 321 319 317 317 317 316 311 307 306 306 306 306 302 298 297 297 300 302 303 302 301 301 302 302 302 302 302 300 297 298 298 300 302 302 302 302 302 302 301 301 301 301 300 299 300 302
321 320 320 320 320 320 321 319 317 317 317 316 312 307 306 306 306 306 304 300 297 296 297 299 300 300 299 299 299 299 300 301 301 299 296 295 296 299 301 301 302 302 302 302 301 301 301 301 300 299 298 300
320 320 319 319 319 319 319 318 318 317 316 315 312 307 305 306 306 305 304 301 298 297 296 297 298 298 298 298 298 298 298 300 300 297 295 294 295 298 300 300 301 301 302 301 301 301 300 300 300 299 297 298
320 320 320 319 318 318 319 318 317 316 315 314 311 307 305 306 306 305 304 302 299 297 297 297 297 297 297 296 296 296 296 297 297 296 295 294 296 299 299 299 299 300 301 301 301 301 301 300 300 300 298 297
319 319 320 319 316 316 317 317 316 316 314 313 311 307 305 305 306 305 304 303 301 299 297 297 297 297 296 296 295 294 294 295 295 295 294 294 296 298 298 299 299 299 299 299 299 299 300 300 300 300 299 297
318 319 319 319 317 316 316 316 316 315 314 313 312 309 305 305 305 305 304 303 303 301 300 298 297 296 296 295 294 294 293 293 293 292 293 293 294 296 297 298 298 298 298 298 298 298 298 298 299 299 299 298
315 317 317 318 318 317 316 315 315 314 313 313 311 308 305 305 305 305 305 304 304 303 302 300 298 297 295 295 294 293 293 292 292 291 291 292 292 294 295 296 296 297 297 297 297 296 296 295 296 297 297 297
315 315 316 317 317 317 315 315 315 313 313 311 308 306 306 307 307 307 307 306 305 304 303 302 300 298 297 295 294 293 293 292 291 291 291 291 291 292 293 294 295 295 296 296 296 295 294 293 294 294 295 295
313 313 314 316 316 315 314 313 314 313 311 309 306 307 308 309 310 310 310 309 308 306 305 304 302 301 299 297 295 293 292 292 291 291 291 291 291 290 291 292 293 294 295 295 294 294 294 293 293 293 293 293
313 313 313 314 315 315 313 312 312 312 310 307 306 308 309 310 311 311 310 310 309 308 307 306 305 304 303 301 298 295 293 292 292 292 292 291 291 290 290 291 292 293 294 294 295 295 294 293 293 293 292 292
312 313 312 312 313 314 314 312 311 311 309 307 306 307 308 309 310 310 310 310 309 309 308 308 308 307 306 304 302 299 295 292 292 292 291 291 291 290 290 290 291 292 293 294 294 294 294 294 293 292 291 291
311 311 311 311 311 312 313 312 312 310 309 308 307 307 307 308 309 309 309 309 310 309 309 308 308 308 307 306 305 303 298 294 291 291 291 291 290 290 290 290 290 291 292 293 293 293 293 293 292 291 290 290
308 309 310 310 310 310 311 312 311 310 309 309 308 308 308 307 307 308 307 308 309 309 308 307 307 307 307 307 307 306 303 299 295 292 291 291 291 290 290 289 289 290 291 292 292 292 292 291 290 290 289 289
306 306 308 309 309 309 310 310 310 310 310 310 310 309 309 307 306 306 305 306 308 309 309 308 307 306 306 306 307 307 306 305 302 297 294 291 291 290 290 290 290 289 289 290 291 291 290 289 288 289 289 290
305 304 305 306 307 309 309 310 310 310 309 310 311 311 310 308 307 306 306 305 307 309 309 309 308 307 305 305 305 306 306 306 305 303 299 295 292 291 291 291 291 290 290 290 290 290 289 289 288 289 290 290
304 304 303 304 305 306 307 308 309 309 309 309 310 311 311 309 308 308 307 307 307 308 309 309 309 308 307 305 305 305 305 304 305 305 303 301 298 295 292 290 290 290 290 290 289 289 289 289 289 290 290 290
303 303 303 303 303 304 304 305 306 307 307 308 308 309 309 308 308 309 308 308 308 309 309 309 309 309 308 307 306 306 305 304 305 305 305 304 303 300 296 292 291 290 290 290 290 290 289 289 289 289 289 289
Wind_Speed
29 30 32 32 31 31 30 29 28 27 25 21 20 17 16 18 16 11 12 14 16 18 19 21 21 19 17 17 16 15 15 15 14 13 14 15 15 17 17 17 16 17 19 19 21 20 19 19 17 16 15 15
31 32 33 33 31 32 32 31 30 29 27 24 23 20 17 17 15 11 12 15 17 19 18 19 21 20 16 16 16 14 15 16 16 16 16 16 17 18 17 17 16 19 21 20 20 20 19 18 17 16 14 14
31 33 33 33 33 33 32 32 31 29 28 27 26 23 19 16 14 12 14 17 19 20 18 17 19 19 16 16 17 17 16 17 17 18 18 18 18 19 18 16 16 20 23 21 21 20 20 18 17 16 15 14
31 33 33 33 33 34 34 34 32 29 28 27 25 22 18 15 14 14 15 19 20 21 18 16 20 20 18 18 18 19 18 19 19 19 19 19 20 20 20 20 19 23 24 23 22 21 20 19 18 17 17 17
32 33 32 32 33 35 35 34 32 29 28 25 22 20 17 16 15 16 18 21 22 20 17 18 22 21 20 19 18 20 20 20 20 19 20 20 21 20 21 22 24 25 24 24 23 22 21 19 18 19 18 20
33 34 33 34 35 36 34 32 31 29 27 23 20 19 17 17 16 18 20 22 22 18 18 22 25 23 21 20 19 21 21 20 20 21 22 21 20 20 21 23 25 25 22 22 23 23 22 20 19 19 19 22
34 37 36 37 37 36 33 31 29 27 25 22 19 18 16 17 18 19 20 21 21 18 21 26 25 23 22 21 19 21 21 21 21 23 23 21 20 20 22 24 26 25 22 21 22 23 21 20 20 19 21 24
37 40 39 39 39 37 34 29 26 24 24 21 19 17 16 19 19 19 20 20 20 19 23 27 26 25 24 22 22 23 24 24 24 25 24 22 21 21 23 25 26 24 23 22 21 22 20 19 20 20 22 25
41 42 41 42 40 38 34 29 27 25 23 20 18 17 17 20 20 19 20 20 20 20 23 26 27 27 26 26 27 27 28 28 26 25 24 22 21 22 24 27 27 24 23 24 22 21 19 19 19 21 23 25
42 42 42 42 42 38 34 31 29 26 23 19 17 17 19 22 21 19 20 20 19 21 24 27 28 28 28 28 28 28 28 27 25 23 23 23 22 23 27 27 26 24 22 23 23 21 20 19 19 20 22 24
40 40 41 41 40 37 35 33 28 25 23 18 16 17 20 22 20 19 20 20 19 23 26 28 28 28 29 29 27 27 26 22 21 22 22 23 23 26 29 29 26 24 22 21 22 21 20 20 19 20 21 23
38 38 40 40 39 36 34 32 28 26 23 18 17 18 20 21 19 18 19 19 20 25 27 28 28 28 28 27 26 25 24 20 17 19 21 23 24 28 31 29 27 25 23 22 21 21 20 20 20 20 21 23
38 40 41 40 39 37 33 31 30 27 23 20 18 19 20 20 18 18 18 17 20 25 27 28 27 27 26 25 25 23 23 21 17 17 20 23 24 30 33 30 28 26 24 23 22 22 20 20 20 21 21 22
41 42 43 42 40 37 33 31 29 26 21 18 18 20 20 19 18 17 16 16 19 23 26 27 26 26 25 24 24 22 21 21 19 16 18 22 26 31 34 32 30 27 25 25 24 23 22 20 20 21 23 22
42 42 42 42 39 37 34 30 26 24 21 18 16 19 20 18 17 16 14 14 17 20 24 26 25 25 24 23 23 22 20 20 19 16 16 20 26 33 35 33 33 29 26 25 25 24 23 22 20 19 22 24
41 41 42 41 38 36 34 30 26 23 23 22 17 18 19 15 15 15 14 14 16 17 20 23 24 24 23 22 21 20 19 19 18 17 16 18 26 34 35 34 34 32 29 26 25 24 23 23 22 19 18 24
40 41 42 40 37 35 32 30 26 23 24 23 19 19 18 15 13 14 14 14 15 16 17 20 22 22 21 19 18 18 18 18 18 18 17 19 27 34 35 34 34 33 32 29 27 25 24 23 23 20 17 21
42 42 42 40 37 35 31 28 25 22 22 21 20 19 19 16 14 14 14 14 15 15 16 17 18 19 18 17 17 17 17 18 18 18 18 20 28 33 32 32 33 33 33 32 30 28 26 24 23 22 19 19
44 43 43 41 37 33 30 26 23 22 21 19 19 20 19 17 16 15 15 15 15 15 15 15 16 15 15 14 15 15 16 17 17 18 19 22 28 32 31 31 31 31 32 31 31 30 28 27 25 24 22 21
43 43 41 37 30 26 27 24 22 21 20 19 19 20 19 18 17 16 16 15 14 13 13 14 14 13 13 13 13 14 15 16 16 17 18 22 28 30 30 30 30 30 30 30 29 28 28 28 28 27 25 23
34 37 35 30 25 24 25 24 22 21 20 20 20 20 20 18 17 16 16 14 13 12 12 12 12 12 11 11 11 12 13 15 15 16 18 21 25 28 28 28 28 29 29 29 28 26 26 26 27 28 27 25
30 31 30 26 24 26 27 26 24 23 22 22 20 20 18 17 17 16 15 14 12 12 12 11 11 11 10 11 11 11 12 14 15 17 17 19 22 25 27 27 26 27 27 27 27 26 24 23 24 26 26 26
28 29 29 25 23 26 29 29 27 25 24 23 22 21 19 18 17 15 14 13 13 13 12 12 11 10 10 11 11 12 13 14 16 18 18 19 20 22 24 24 24 25 26 26 26 25 23 21 22 23 24 25
24 26 27 26 25 27 29 30 28 26 25 26 26 24 22 21 18 17 15 14 13 13 12 12 11 10 10 11 12 13 14 14 15 17 18 19 19 20 22 23 23 24 25 26 25 24 23 22 22 23 24 25
20 24 26 27 29 30 30 31 31 29 28 29 29 28 27 24 21 20 18 16 15 14 14 12 12 12 12 11 11 11 12 12 13 15 16 18 19 20 20 21 22 23 24 24 25 24 24 24 24 25 26 26
12 18 22 24 26 28 29 30 32 31 29 30 30 29 28 27 25 24 22 19 18 17 17 16 15 14 13 13 12 11 11 12 14 15 16 18 19 20 20 21 22 23 25 25 25 24 24 25 26 27 28 28
8 11 16 20 22 24 26 27 29 30 29 29 30 29 29 29 28 27 25 23 21 20 20 19 18 16 14 13 13 12 12 13 14 15 17 18 19 20 21 22 23 24 24 24 25 24 23 23 23 25 29 31
6 8 12 16 18 21 24 25 27 29 29 29 30 29 30 30 30 29 28 26 24 22 21 20 19 18 17 15 14 13 13 13 13 14 16 17 19 21 22 23 24 25 25 26 25 23 21 20 19 20 24 27
4 6 9 13 16 20 24 26 28 31 32 31 31 30 30 31 31 30 29 28 26 25 24 23 22 21 20 19 17 16 15 15 13 13 14 16 19 20 21 22 23 25 26 27 27 24 21 18 17 20 22 21
4 5 6 9 12 16 20 24 27 30 31 32 32 32 31 31 30 30 30 30 28 27 27 26 25 24 23 21 20 19 18 17 15 15 15 16 17 17 19 21 23 25 26 27 28 28 27 25 21 21 21 18
6 5 6 7 9 11 14 17 20 22 25 28 31 32 32 32 31 31 31 31 30 29 29 29 27 27 26 24 23 22 21 20 18 17 17 17 17 16 18 21 24 24 26 28 29 29 31 32 30 27 23 20
Wind_Direction
189 186 183 183 180 179 178 179 184 186 178 171 175 184 195 204 213 196 162 162 162 170 177 173 177 178 176 183 184 186 184 175 176 177 166 161 157 154 160 166 168 172 175 175 173 174 173 172 176 176 179 185
190 188 185 183 181 179 180 182 185 186 184 187 188 190 206 213 207 191 169 165 171 177 174 171 179 180 176 180 173 168 167 161 160 161 158 159 157 157 165 168 169 177 178 174 173 174 174 173 174 172 176 185
190 190 186 184 185 182 183 185 184 184 191 203 206 206 214 212 203 194 182 175 177 180 176 167 170 171 163 162 160 156 158 157 157 158 158 160 161 163 166 164 172 182 180 176 175 174 176 176 174 174 183 189
190 190 188 185 185 186 185 184 185 189 196 208 214 218 218 212 209 197 185 180 181 187 186 166 156 155 150 151 154 155 159 160 160 161 161 164 167 170 171 168 171 180 182 181 179 178 180 180 177 177 183 185
190 190 189 187 186 187 186 183 188 195 200 209 216 222 221 217 214 198 188 183 185 189 178 154 147 147 150 157 162 163 163 165 166 165 169 175 176 177 180 179 175 175 181 186 186 185 186 184 181 179 181 181
189 189 188 188 188 187 186 186 192 198 203 211 217 222 224 221 215 203 197 189 187 185 167 154 151 154 161 165 166 167 166 169 171 170 177 184 183 182 181 184 182 176 177 185 190 191 190 188 184 182 182 179
189 188 187 187 186 187 187 187 192 199 206 212 219 225 229 223 216 207 202 193 190 185 170 163 159 160 163 164 164 165 165 169 173 176 182 184 184 184 182 184 185 181 179 181 188 192 193 190 187 184 181 177
191 189 189 190 189 189 188 187 191 200 207 212 220 228 230 222 214 205 200 195 192 187 175 168 162 159 161 164 166 166 167 170 174 180 185 184 183 185 185 186 185 185 186 185 187 191 193 192 188 184 178 175
192 190 191 191 191 191 189 192 198 204 209 212 221 228 224 218 210 202 199 196 192 185 175 167 161 160 164 169 172 175 177 180 183 184 187 186 183 184 186 184 183 187 191 192 191 190 191 190 186 181 177 175
192 192 192 191 191 191 192 196 200 204 209 212 221 226 218 211 204 201 201 199 191 180 171 165 163 166 172 177 181 186 188 191 193 190 191 188 182 184 186 183 184 187 191 195 194 192 190 188 186 182 179 177
193 194 194 193 193 193 194 196 199 206 210 214 225 223 214 208 202 200 201 201 189 177 173 169 170 175 179 184 189 193 197 198 197 194 195 192 186 185 185 185 187 187 190 197 196 193 189 186 188 185 183 180
198 197 197 195 196 196 194 195 202 209 211 219 228 219 211 207 202 199 198 198 187 178 178 176 177 182 185 190 195 198 202 203 199 196 196 195 190 185 185 187 189 189 190 195 197 196 190 187 188 186 186 184
203 202 199 198 198 197 195 197 203 206 208 215 219 212 210 208 203 199 195 193 184 180 182 183 184 187 190 194 200 204 206 207 204 198 196 198 193 185 186 187 188 190 189 193 199 200 196 191 190 190 190 187
203 201 199 199 199 199 198 199 199 199 204 212 213 209 209 209 206 201 197 191 183 182 185 188 190 192 194 196 202 207 208 209 209 207 202 200 195 187 187 189 190 191 191 192 197 202 202 198 195 195 196 193
200 200 199 199 198 200 201 199 197 198 206 216 216 210 211 213 208 202 199 195 188 186 188 192 195 197 199 199 203 206 206 207 209 212 209 202 196 190 188 191 193 195 196 195 196 200 203 205 203 199 199 198
201 201 201 200 199 199 200 200 201 204 213 222 218 209 212 215 209 202 200 200 196 191 191 195 198 201 204 204 206 206 204 207 211 213 211 205 197 193 191 193 196 199 201 202 202 202 204 208 211 207 203 201
206 205 202 200 200 199 198 200 203 207 214 217 213 206 206 208 208 206 204 203 202 197 193 196 198 202 205 207 209 209 208 208 212 212 209 204 196 194 195 195 198 201 203 206 208 208 209 211 213 211 205 201
205 207 205 202 200 198 200 201 203 207 209 207 206 205 202 201 205 208 207 205 204 201 196 196 198 201 202 206 208 211 212 211 211 208 205 201 195 196 199 199 201 203 204 208 211 214 215 216 218 215 206 199
202 204 206 206 200 195 199 201 201 205 209 209 208 206 202 202 204 206 209 207 206 204 199 199 199 198 198 200 203 204 207 207 208 205 201 200 197 200 203 204 205 206 207 209 213 217 219 221 223 222 215 207
200 203 205 205 205 204 201 197 200 209 216 215 213 209 203 205 206 206 209 209 207 207 206 206 204 200 198 199 198 196 198 201 204 202 199 200 201 204 207 209 210 211 212 213 215 218 221 225 226 227 226 221
203 203 202 203 211 217 211 203 204 213 216 213 211 207 202 204 208 208 212 213 211 212 212 211 210 208 205 207 203 198 199 200 203 203 200 199 202 206 211 213 214 215 216 216 218 219 222 225 226 227 228 229
209 207 202 203 212 216 213 209 208 209 211 209 205 200 197 201 206 208 213 217 217 218 217 215 214 215 214 215 212 208 206 204 206 208 206 203 202 206 212 217 219 220 221 221 221 221 222 223 222 224 226 229
209 206 201 203 215 217 211 209 210 208 207 205 200 197 196 198 204 208 210 214 220 222 222 220 218 216 215 217 218 216 214 210 210 211 210 208 205 206 210 216 222 224 224 223 224 225 226 226 224 225 228 231
210 210 206 206 216 221 216 212 211 209 208 204 200 200 199 201 207 206 206 211 218 223 226 228 230 226 220 220 221 222 220 217 218 218 216 214 212 210 210 211 215 220 223 224 225 228 230 231 231 231 233 236
220 220 217 213 212 216 219 217 212 209 208 206 204 204 203 205 207 205 205 210 214 219 222 226 231 230 228 225 225 227 228 226 227 227 225 222 220 218 217 215 213 214 218 223 226 228 230 232 235 235 236 237
245 236 233 228 221 219 222 221 215 210 207 208 209 210 210 210 208 207 208 210 214 218 219 220 224 225 227 227 228 227 228 227 227 230 229 227 225 223 223 224 222 219 218 222 226 229 233 235 237 239 239 238
289 260 247 241 237 235 234 232 226 215 208 211 213 212 216 216 213 211 212 213 216 219 221 222 223 223 224 226 228 228 228 229 227 231 233 232 231 229 226 225 227 228 226 226 227 228 234 239 243 245 245 243
306 282 260 245 237 235 236 239 238 226 216 216 217 217 219 219 218 216 216 217 219 222 225 227 227 226 224 225 227 228 231 234 233 234 237 237 235 233 231 229 230 231 232 232 229 226 228 235 243 248 248 248
289 282 272 257 240 233 232 234 238 234 226 219 219 224 226 224 222 220 221 221 221 223 227 231 232 231 229 228 228 227 228 232 235 235 238 241 239 239 240 239 238 236 235 236 235 232 229 229 237 246 249 252
279 262 263 263 250 243 242 241 239 239 235 228 225 228 230 227 224 225 226 225 224 226 228 231 234 235 235 233 232 231 229 230 231 234 238 243 244 245 246 245 242 241 240 240 238 236 235 235 239 247 251 252
303 272 252 247 243 239 245 251 250 247 244 240 235 235 235 232 228 228 229 228 228 229 230 232 234 236 236 236 236 235 233 230 230 234 237 242 247 247 246 245 244 245 244 242 240 239 238 238 241 245 249 250